Location: Arleux
(50.3632°N, 2.8721°E)
Time: 22:47:57
(UTC+00:00)

Cosmos 1378 Rocket - Pass Details

Date: 15 December 2019
Orbit: 602 x 626 km, 82.5° (Epoch: 17 January)

Event Time Altitude Azimuth Distance (km) Brightness Sun altitude
Exits shadow 06:32:05 - 337° (NNW) 2,351 6.1 -10.4°
Reaches altitude 10° 06:33:01 10° 332° (NNW) 2,004 5.7 -10.3°
Maximum altitude 06:36:58 32° 270° (W) 1,078 4.3 -9.7°
Drops below altitude 10° 06:40:53 10° 207° (SSW) 1,997 6.2 -9.1°
Sets 06:43:17 0° 198° (SSW) 2,900 7.1 -8.8°
